Location: Newark
(45.8667°N, 9.7333°E)
Time: 05:01:32
(UTC+00:00)

Tiros 1 - Visible Passes

Search period start: 25 January 2020 00:00
Search period end: 04 February 2020 00:00
Orbit: 630 x 664 km, 48.4° (Epoch: 24 January)

Date Brightness Start Highest point End Pass type
(mag) Time Alt. Az. Time Alt. Az. Time Alt. Az.
25 Jan 8.4 17:47:41 10° WNW 17:52:08 39° SW 17:56:36 10° SE visible
26 Jan 9.5 18:14:18 10° W 18:17:51 21° SW 18:21:25 10° S visible
27 Jan 8.5 16:57:37 10° WNW 17:02:06 41° SSW 17:06:36 10° SE visible
28 Jan 9.6 17:24:09 10° W 17:27:50 22° SW 17:31:31 10° S visible
29 Jan 10.4 17:52:29 10° WSW 17:53:23 10° SW 17:54:16 10° SW visible
31 Jan 10.5 17:01:50 10° WSW 17:03:23 11° SW 17:04:56 10° SSW visible
